Погода в Черноречье

Россия / Оренбургская область     51°47′26″N   54°48′13″E
темп.,
°C
ветер,
м/с
пор.,
м/с
влажн.,
%
обл.,
%
осадки,
мм/ч
давл.,
гПа
погр.,
м
24 сентября, пт
пт2423:00+15вюв71424100 0.0 1021536
02:00+14вюв71432100 0.0 1022627
05:00+13юв81439100 0.2 1022750
08:00+12вюв81339100 0.0 1022649
11:00+13вюв81332100 0.0 1022688
14:00+15вюв81225100 0.0 1021876
17:00+17вюв71120100 0.0 10181008
20:00+17вюв91423100 0.0 1017954
25 сентября, сб
сб2523:00+15вюв81524100 0.0 1017818
02:00+14вюв91626100 0.0 1015700
05:00+13вюв71429100 0.0 1014641
08:00+14вюв71328100 0.0 1012613
11:00+17юв7920100 0.0 1011929
14:00+18ююв5821100 0.1 10101305
17:00+12вюв51173100 0.4 1011495
20:00+11всв337112 0.0 101058
26 сентября, вс
вс2623:00+11св22676 0.0 100914
02:00+10ссв1161100 0.0 100710
05:00+11сз2254100 0.0 100715
08:00+10ююв2269100 0.4 100844
11:00+15ююз115443 0.6 1008509
14:00+18ююв12405 0.0 10071467
17:00+19вюв233482 0.0 10072164
20:00+16вюв2346100 0.0 1007122
27 сентября, пн
пн2723:00+14в5958100 0.1 1006408
02:00+13вюв61040100 0.0 1006472
05:00+11в61055100 0.0 1007544
08:00+9в71069100 0.2 1008588
11:00+8в71062100 1.1 1009708
14:00+6всв81076100 0.1 1011741
17:00+8всв81058100 0.1 10121234
20:00+5всв7137599 0.0 10131087
28 сентября, вт
вт2823:00+5св71173100 0.0 1014985
02:00+5св4105748 0.0 1015597
05:00+4св612575 0.0 1017499
08:00+3ссв712625 0.0 1019548
11:00+7св78498 0.0 10221078
14:00+10св563725 0.0 10221548
17:00+11ссв45315 0.0 10231663
20:00+7с33415 0.0 102433